Powrót do katalogu

QIANFAN-237

AktywnyŁącznośćPO
NORAD 69866·PAYLOAD·🇨🇳 China

Wystrzelony Jul 5, 2026 z Wenchang Space Launch Site

Loading…

Następne Przeloty (najbliższe 24 godziny)

TLE

ŚwieżeSource: Space-Track

Epoka: Sep 14, 2026, 12:21 UTC

1 69866U 26155U   26257.51478249 -.01836511  00000-0 -28742+1 0  9996
2 69866  89.0081  54.2788 0039773  30.9473 329.4012 13.54405696  9937

Śledź QIANFAN-237 w czasie rzeczywistym z AllMySat

Download on the App Store